Time,TemperatureF,DewpointF,PressureIn,WindDirection,WindDirectionDegrees,WindSpeedMPH,WindSpeedGustMPH,Humidity,HourlyPrecipIn,Conditions,Clouds,dailyrainin,SoftwareType,DateUTC
2013-09-05 00:22:00,57.0,40.0,29.86,ESE,122,2.0,2.0,53,0.00,,,0.00,,2013-09-05 07:22:00,
2013-09-05 00:42:00,58.0,41.0,29.84,ESE,118,4.0,5.0,54,0.00,,,0.00,,2013-09-05 07:42:00,
2013-09-05 00:52:00,58.0,41.0,29.84,SE,135,2.0,5.0,53,0.00,,,0.00,,2013-09-05 07:52:00,
2013-09-05 01:12:00,57.0,41.0,29.84,ESE,121,1.0,2.0,54,0.00,,,0.00,,2013-09-05 08:12:00,
2013-09-05 01:21:00,57.0,41.0,29.84,ESE,117,0.0,2.0,55,0.00,,,0.00,,2013-09-05 08:21:00,
2013-09-05 01:42:00,56.0,41.0,29.84,SSW,202,1.0,2.0,58,0.00,,,0.00,,2013-09-05 08:42:00,
2013-09-05 01:52:00,57.0,42.0,29.84,SSE,168,2.0,3.0,58,0.00,,,0.00,,2013-09-05 08:52:00,
2013-09-05 02:11:00,57.0,42.0,29.84,SSW,200,1.0,3.0,57,0.00,,,0.00,,2013-09-05 09:11:00,
2013-09-05 02:22:00,58.0,43.0,29.84,SSE,167,2.0,2.0,57,0.00,,,0.00,,2013-09-05 09:22:00,
2013-09-05 02:43:00,57.0,46.0,29.84,WNW,300,2.0,5.0,66,0.00,,,0.00,,2013-09-05 09:43:00,
2013-09-05 02:53:00,56.0,46.0,29.84,West,268,1.0,5.0,69,0.00,,,0.00,,2013-09-05 09:53:00,
2013-09-05 03:12:00,56.0,47.0,29.84,West,280,1.0,3.0,71,0.00,,,0.00,,2013-09-05 10:12:00,
2013-09-05 03:23:00,56.0,45.0,29.84,SSW,207,2.0,3.0,67,0.00,,,0.00,,2013-09-05 10:23:00,
2013-09-05 03:42:00,56.0,47.0,29.84,SSW,202,2.0,3.0,71,0.00,,,0.00,,2013-09-05 10:42:00,
2013-09-05 03:53:00,56.0,45.0,29.84,SSW,202,2.0,3.0,66,0.00,,,0.00,,2013-09-05 10:53:00,
2013-09-05 04:11:00,55.0,43.0,29.84,South,176,2.0,3.0,65,0.00,,,0.00,,2013-09-05 11:11:00,
2013-09-05 04:21:00,55.0,43.0,29.84,SSW,202,2.0,3.0,65,0.00,,,0.00,,2013-09-05 11:21:00,
2013-09-05 04:42:00,55.0,44.0,29.84,SSE,167,3.0,5.0,66,0.00,,,0.00,,2013-09-05 11:42:00,
2013-09-05 04:52:00,55.0,44.0,29.84,South,190,2.0,3.0,67,0.00,,,0.00,,2013-09-05 11:52:00,
2013-09-05 05:12:00,55.0,44.0,29.84,South,184,2.0,3.0,67,0.00,,,0.00,,2013-09-05 12:12:00,
2013-09-05 05:21:00,55.0,45.0,29.84,SSW,195,2.0,3.0,68,0.00,,,0.00,,2013-09-05 12:21:00,
2013-09-05 05:42:00,55.0,45.0,29.84,SSW,202,2.0,5.0,68,0.00,,,0.00,,2013-09-05 12:42:00,
2013-09-05 05:52:00,55.0,45.0,29.84,SSW,196,2.0,3.0,68,0.00,,,0.00,,2013-09-05 12:52:00,
2013-09-05 06:12:00,55.0,45.0,29.84,SSW,199,2.0,5.0,69,0.00,,,0.00,,2013-09-05 13:12:00,
2013-09-05 06:21:00,55.0,45.0,29.84,SSE,158,2.0,3.0,69,0.00,,,0.00,,2013-09-05 13:21:00,
2013-09-05 06:52:00,53.0,43.0,29.84,SSE,158,2.0,3.0,70,0.00,,,0.00,,2013-09-05 13:52:00,
2013-09-05 07:12:00,52.0,43.0,29.84,SSE,158,2.0,3.0,70,0.00,,,0.00,,2013-09-05 14:12:00,
2013-09-05 07:22:00,52.0,43.0,29.84,SSE,167,2.0,3.0,71,0.00,,,0.00,,2013-09-05 14:22:00,
2013-09-05 07:42:00,55.0,47.0,29.84,South,181,2.0,2.0,73,0.00,,,0.00,,2013-09-05 14:42:00,
2013-09-05 07:52:00,57.0,47.0,29.86,South,176,1.0,3.0,70,0.00,,,0.00,,2013-09-05 14:52:00,
2013-09-05 08:11:00,60.0,49.0,29.87,WSW,241,1.0,3.0,67,0.00,,,0.00,,2013-09-05 15:11:00,
2013-09-05 09:24:00,63.0,48.0,29.86,NW,305,6.0,7.0,57,0.00,,,0.00,,2013-09-05 16:24:00,
2013-09-05 09:43:00,65.0,47.0,29.84,West,278,3.0,7.0,53,0.00,,,0.00,,2013-09-05 16:43:00,
2013-09-05 09:54:00,66.0,46.0,29.84,WNW,298,6.0,7.0,48,0.00,,,0.00,,2013-09-05 16:54:00,
2013-09-05 10:12:00,64.0,46.0,29.84,WNW,292,5.0,8.0,52,0.00,,,0.00,,2013-09-05 17:12:00,
2013-09-05 10:23:00,62.0,47.0,29.84,WNW,296,6.0,8.0,57,0.00,,,0.00,,2013-09-05 17:23:00,
2013-09-05 10:43:00,65.0,46.0,29.84,NW,308,4.0,8.0,51,0.00,,,0.00,,2013-09-05 17:43:00,
2013-09-05 10:52:00,66.0,46.0,29.84,West,267,2.0,7.0,48,0.00,,,0.00,,2013-09-05 17:52:00,
2013-09-05 11:12:00,68.0,45.0,29.84,NNW,335,3.0,8.0,43,0.00,,,0.00,,2013-09-05 18:12:00,
2013-09-05 11:21:00,69.0,46.0,29.84,NW,312,5.0,8.0,43,0.00,,,0.00,,2013-09-05 18:21:00,
2013-09-05 11:52:00,71.0,44.0,29.84,WNW,301,5.0,9.0,38,0.00,,,0.00,,2013-09-05 18:52:00,
2013-09-05 12:11:00,72.0,44.0,29.84,NNW,336,5.0,8.0,37,0.00,,,0.00,,2013-09-05 19:11:00,
2013-09-05 12:21:00,72.0,44.0,29.84,NW,313,6.0,8.0,36,0.00,,,0.00,,2013-09-05 19:21:00,
2013-09-05 12:42:00,70.0,43.0,29.81,WNW,299,6.0,8.0,38,0.00,,,0.00,,2013-09-05 19:42:00,
2013-09-05 12:52:00,70.0,43.0,29.81,WNW,297,5.0,9.0,38,0.00,,,0.00,,2013-09-05 19:52:00,
2013-09-05 13:11:00,72.0,44.0,29.81,WNW,287,6.0,13.0,36,0.00,,,0.00,,2013-09-05 20:11:00,
2013-09-05 13:22:00,72.0,44.0,29.81,WNW,296,7.0,9.0,36,0.00,,,0.00,,2013-09-05 20:22:00,
2013-09-05 13:52:00,71.0,42.0,29.81,WNW,297,6.0,8.0,35,0.00,,,0.00,,2013-09-05 20:52:00,
2013-09-05 14:21:00,75.0,43.0,29.81,WNW,297,4.0,10.0,32,0.00,,,0.00,,2013-09-05 21:21:00,
2013-09-05 14:53:00,72.0,42.0,29.80,NW,313,7.0,9.0,34,0.00,,,0.00,,2013-09-05 21:53:00,
2013-09-05 15:13:00,72.0,42.0,29.78,WNW,296,8.0,12.0,34,0.00,,,0.00,,2013-09-05 22:13:00,
2013-09-05 15:24:00,72.0,42.0,29.78,NW,310,6.0,10.0,34,0.00,,,0.00,,2013-09-05 22:24:00,
2013-09-05 15:53:00,75.0,43.0,29.75,WNW,289,7.0,12.0,32,0.00,,,0.00,,2013-09-05 22:53:00,
2013-09-05 16:12:00,74.0,42.0,29.75,NW,322,6.0,9.0,32,0.00,,,0.00,,2013-09-05 23:12:00,
2013-09-05 16:22:00,73.0,42.0,29.75,NW,321,5.0,13.0,33,0.00,,,0.00,,2013-09-05 23:22:00,
2013-09-05 18:21:00,57.0,46.0,29.81,South,184,3.0,5.0,67,0.08,,,0.09,,2013-09-06 01:21:00,
2013-09-05 18:41:00,58.0,46.0,29.81,SSW,202,0.0,2.0,65,0.08,,,0.09,,2013-09-06 01:41:00,
2013-09-05 18:52:00,58.0,46.0,29.81,West,266,0.0,2.0,65,0.06,,,0.09,,2013-09-06 01:52:00,
2013-09-05 19:11:00,57.0,50.0,29.81,NW,324,5.0,6.0,76,0.00,,,0.09,,2013-09-06 02:11:00,
2013-09-05 19:22:00,57.0,49.0,29.83,NNW,338,3.0,6.0,74,0.00,,,0.09,,2013-09-06 02:22:00,
2013-09-05 19:42:00,56.0,50.0,29.81,WNW,302,7.0,12.0,81,0.00,,,0.09,,2013-09-06 02:42:00,
2013-09-05 19:52:00,56.0,48.0,29.83,WNW,302,6.0,12.0,74,0.00,,,0.09,,2013-09-06 02:52:00,
2013-09-05 20:22:00,55.0,43.0,29.87,West,280,3.0,6.0,63,0.00,,,0.09,,2013-09-06 03:22:00,
2013-09-05 20:55:00,54.0,43.0,29.89,WSW,256,3.0,5.0,67,0.00,,,0.09,,2013-09-06 03:55:00,
2013-09-05 21:13:00,53.0,42.0,29.87,South,175,0.0,2.0,66,0.00,,,0.09,,2013-09-06 04:13:00,
2013-09-05 21:23:00,52.0,41.0,29.87,South,189,1.0,2.0,65,0.00,,,0.09,,2013-09-06 04:23:00,
2013-09-05 21:54:00,52.0,42.0,29.87,SSW,203,1.0,3.0,69,0.00,,,0.09,,2013-09-06 04:54:00,
2013-09-05 22:12:00,51.0,40.0,29.87,SSW,211,1.0,2.0,67,0.00,,,0.09,,2013-09-06 05:12:00,
2013-09-05 22:23:00,52.0,43.0,29.87,SW,233,2.0,5.0,70,0.00,,,0.09,,2013-09-06 05:23:00,
2013-09-05 22:52:00,51.0,40.0,29.90,SSE,156,2.0,3.0,65,0.00,,,0.09,,2013-09-06 05:52:00,
2013-09-05 23:11:00,50.0,39.0,29.90,SSE,158,2.0,2.0,65,0.00,,,0.09,,2013-09-06 06:11:00,
2013-09-05 23:21:00,50.0,39.0,29.90,SSW,202,2.0,3.0,66,0.00,,,0.09,,2013-09-06 06:21:00,
2013-09-05 23:42:00,51.0,40.0,29.90,SW,229,2.0,3.0,67,0.00,,,0.09,,2013-09-06 06:42:00,
2013-09-05 23:52:00,51.0,40.0,29.90,WSW,252,2.0,3.0,66,0.00,,,0.09,,2013-09-06 06:52:00,